TEVEL2-6

Last updated on Sun Sep 06 2026 00:03:13 GMT+0000 (Coordinated Universal Time)

1 63215U 25052F 26248.49006342 .00012470 00000+0 34675-3 0 9992 2 63215 97.3777 145.0253 0003195 139.6304 220.5178 15.36984701 82439
UTC large
Height (km)
Speed (km/s)
/
Latitude / Longitude
Inclination (degrees)
Orbital Period (minutes)
Azimuth
Elevation
Range (km)
Doppler Factor

Next 0 passes for location: London (51.5072 / 0.1276)

No passes found over London.
TEVEL2-6